Dewpoint
73 74 75 75 75 75 76 78 75 78 78 78 78 78 78 78 78 79 78 78 77 77 76 75 74 74 73 71 70 67 64 64 60 60 62 62 60 58 57 60 59 60 56
73 74 74 75 74 73 75 76 77 76 79 77 78 78 78 78 78 78 77 75 75 76 75 76 75 73 74 73 71 70 69 67 64 61 62 61 60 60 59 59 60 53 55
73 73 73 73 73 73 73 75 76 76 76 76 77 77 77 77 77 78 78 76 76 75 76 75 75 75 74 73 73 71 70 67 66 62 61 61 58 58 58 61 61 60 57
71 72 73 72 72 72 74 74 75 76 75 75 76 76 77 77 76 77 77 77 76 75 76 75 75 75 75 75 74 72 71 70 68 64 60 59 57 58 58 55 56 59 58
71 71 72 74 73 73 73 74 74 75 75 75 75 76 76 75 73 76 76 76 76 76 76 75 75 74 72 73 73 73 72 71 67 65 62 59 57 57 54 56 52 52 58
71 71 73 73 74 73 73 73 75 74 74 75 75 75 75 72 66 65 72 74 74 74 74 75 75 72 71 68 68 68 71 72 69 66 64 60 59 58 55 54 53 53 54
71 73 73 74 74 74 73 74 73 75 75 75 75 75 75 75 66 62 65 72 72 72 74 74 72 69 69 73 69 66 66 65 66 68 67 64 61 57 55 56 55 55 56
70 71 73 74 74 74 74 74 75 74 75 75 75 75 75 74 66 63 63 70 72 73 73 72 72 72 71 72 74 73 70 69 64 64 64 64 64 58 58 58 59 59 58
69 71 72 73 74 75 74 75 75 75 75 75 75 76 76 75 65 63 64 71 71 71 71 72 72 72 68 65 73 73 73 72 64 62 62 60 57 58 59 57 58 56 55
72 71 73 74 74 74 75 75 75 75 75 75 75 76 73 76 67 61 62 72 71 70 71 71 66 69 65 63 71 73 73 73 68 64 60 56 57 60 55 56 56 54 48
73 74 74 74 74 75 75 76 76 76 75 75 75 76 76 75 75 62 60 72 71 71 70 70 70 60 57 57 58 72 72 74 69 67 59 56 57 57 55 55 55 55 51
74 74 75 75 74 73 76 76 76 76 76 75 75 75 74 76 68 64 59 61 69 72 71 70 70 60 57 55 57 60 60 66 67 62 56 56 55 56 55 56 55 54 51
78 76 75 76 75 75 75 75 75 76 75 74 74 73 73 73 75 62 59 58 60 70 73 70 62 58 56 58 55 55 57 68 65 60 57 55 53 53 53 55 57 57 53
75 77 77 76 75 76 74 74 75 74 74 74 73 73 72 72 73 72 70 65 61 64 66 70 66 63 60 60 61 58 65 67 65 61 59 55 51 52 53 53 54 54 53
70 75 75 74 74 75 75 73 73 75 72 73 73 72 71 71 70 66 67 73 71 68 69 72 72 70 70 68 67 68 66 64 60 58 56 53 50 52 49 52 52 52 48
68 71 73 72 72 73 73 74 65 62 60 58 55 64 71 59 55 53 50 52 58 57 68 71 72 71 70 68 68 68 65 62 61 59 56 53 51 47 47 52 51 51 50
66 70 70 68 71 70 71 71 72 69 57 56 55 51 51 60 53 48 47 49 51 59 71 71 71 72 73 69 68 70 67 64 62 58 56 53 51 50 51 51 52 51 49
63 60 67 68 69 67 70 71 70 71 71 71 58 57 52 48 49 49 49 54 66 65 71 71 72 73 72 71 70 70 67 63 60 57 53 52 51 51 49 52 52 52 50
62 62 64 66 67 64 69 67 69 70 69 70 70 62 53 45 45 46 45 69 69 69 69 70 71 71 71 72 71 69 67 62 57 54 53 52 52 52 51 53 51 48 47
64 60 61 64 64 64 63 62 63 65 66 67 66 63 67 62 68 68 64 68 69 69 68 69 70 74 72 71 69 67 62 57 55 54 53 53 53 51 49 50 51 50 48
56 61 60 62 63 62 60 60 60 60 60 60 62 59 51 69 67 67 68 71 70 71 71 72 74 72 71 70 67 64 61 57 55 54 53 53 52 50 50 52 51 50 48
53 54 56 59 63 60 60 59 58 57 57 57 58 58 52 62 62 63 62 63 65 66 67 70 70 69 69 69 66 63 59 57 55 54 54 52 52 51 52 51 50 49 48
49 50 51 51 56 57 59 57 57 57 55 55 55 55 55 56 57 57 59 60 61 62 63 63 63 64 65 64 64 63 60 59 57 56 53 52 51 52 51 50 47 47 46
44 50 47 49 49 49 50 53 53 50 52 53 53 53 53 53 53 53 53 53 56 58 57 58 60 62 64 65 65 64 63 63 61 58 55 53 53 51 51 48 46 46 37
39 41 49 51 51 48 49 49 47 48 49 50 51 49 50 50 49 49 52 53 53 53 54 55 55 54 59 63 65 64 48 44 57 52 56 54 54 54 48 46 46 43 39
35 37 38 39 41 52 51 50 49 48 47 48 49 48 47 47 46 45 46 46 48 49 50 52 51 51 53 56 57 45 43 40 49 42 55 55 53 49 46 44 44 42 42
Lifted_Index
-5 -5 -5 -5 -5 -5 -5 -6 -6 -6 -6 -7 -7 -7 -8 -8 -8 -9 -8 -8 -8 -8 -8 -8 -7 -6 -5 -5 -4 -2 -2 -1 -1 -1 -1 1 2 4 5 6 6 6 7
-5 -5 -5 -5 -5 -4 -5 -6 -6 -6 -7 -7 -7 -7 -8 -8 -8 -9 -9 -8 -8 -8 -8 -8 -7 -7 -6 -5 -4 -4 -3 -2 -2 -2 -2 -1 -0 2 4 5 6 6 7
-5 -5 -5 -5 -5 -4 -5 -5 -6 -6 -7 -7 -7 -7 -8 -8 -8 -9 -9 -8 -8 -8 -8 -8 -8 -8 -7 -6 -6 -5 -4 -3 -3 -2 -2 -2 -2 -0 2 4 5 6 7
-5 -5 -5 -5 -5 -4 -4 -5 -5 -6 -6 -6 -7 -7 -7 -8 -8 -8 -8 -9 -9 -9 -8 -8 -8 -8 -8 -7 -7 -6 -5 -4 -4 -3 -3 -3 -2 -1 0 2 4 6 7
-5 -5 -5 -5 -5 -4 -4 -5 -5 -5 -5 -6 -6 -6 -7 -7 -7 -7 -7 -8 -8 -8 -8 -8 -8 -8 -7 -7 -7 -7 -6 -5 -5 -4 -3 -3 -3 -2 -1 1 3 5 5
-6 -6 -6 -5 -5 -5 -4 -5 -5 -5 -5 -5 -6 -6 -6 -6 -6 -5 -6 -6 -7 -7 -8 -8 -8 -7 -7 -7 -7 -7 -7 -6 -6 -5 -4 -3 -3 -3 -2 -0 2 3 3
-6 -6 -6 -6 -6 -5 -5 -5 -5 -5 -5 -5 -5 -6 -6 -6 -5 -5 -4 -5 -5 -6 -6 -7 -7 -6 -6 -6 -7 -7 -7 -7 -7 -6 -5 -4 -3 -3 -3 -1 1 3 4
-6 -6 -6 -7 -6 -6 -6 -5 -5 -5 -5 -5 -5 -6 -6 -6 -6 -5 -4 -4 -4 -5 -5 -6 -6 -6 -6 -6 -7 -7 -7 -7 -7 -6 -5 -4 -4 -3 -2 0 2 3 4
-7 -7 -7 -7 -7 -7 -6 -6 -6 -6 -6 -6 -6 -6 -6 -6 -6 -5 -5 -4 -4 -4 -5 -5 -5 -6 -6 -6 -7 -7 -8 -8 -7 -6 -5 -5 -4 -3 -1 1 2 2 3
-8 -8 -8 -8 -8 -8 -7 -7 -7 -6 -6 -6 -6 -6 -6 -6 -6 -6 -5 -4 -4 -4 -4 -5 -5 -5 -5 -6 -6 -7 -8 -8 -7 -6 -5 -4 -4 -3 -1 1 2 3 4
-9 -9 -9 -8 -8 -8 -8 -8 -8 -7 -7 -6 -6 -6 -6 -6 -6 -6 -5 -5 -4 -4 -4 -5 -5 -5 -5 -5 -5 -6 -7 -7 -7 -6 -5 -4 -4 -3 -1 2 4 5 7
-9 -9 -9 -9 -9 -9 -9 -8 -8 -8 -7 -7 -6 -6 -6 -6 -6 -6 -5 -5 -5 -4 -4 -4 -5 -4 -4 -4 -5 -5 -6 -6 -6 -5 -5 -4 -4 -3 -1 2 5 8 10
-10 -9 -9 -9 -9 -9 -8 -8 -8 -8 -7 -7 -7 -6 -6 -6 -6 -6 -5 -5 -5 -5 -4 -4 -4 -4 -4 -4 -4 -5 -5 -5 -5 -4 -4 -5 -5 -3 -1 2 5 8 11
-9 -9 -9 -9 -9 -9 -8 -8 -8 -8 -8 -7 -7 -7 -6 -6 -6 -5 -5 -5 -5 -5 -4 -4 -4 -4 -4 -4 -4 -4 -4 -4 -4 -4 -5 -5 -5 -3 -1 2 4 8 10
-8 -9 -9 -9 -8 -8 -8 -8 -7 -7 -7 -7 -7 -7 -6 -6 -5 -5 -5 -5 -4 -4 -4 -4 -4 -4 -4 -4 -3 -3 -3 -3 -3 -4 -5 -5 -5 -4 -1 1 4 7 10
-7 -8 -8 -8 -8 -8 -8 -8 -7 -7 -7 -7 -7 -7 -6 -5 -5 -4 -4 -4 -4 -4 -4 -4 -4 -4 -4 -4 -4 -4 -3 -3 -4 -5 -5 -5 -5 -3 -1 1 4 7 10
-6 -7 -7 -7 -7 -7 -7 -8 -8 -7 -7 -7 -6 -6 -6 -5 -4 -4 -3 -3 -3 -4 -4 -4 -5 -5 -4 -4 -4 -4 -4 -4 -5 -5 -5 -5 -5 -3 -1 1 3 6 10
-5 -5 -6 -7 -7 -7 -7 -7 -7 -7 -7 -7 -6 -6 -5 -4 -4 -3 -3 -3 -3 -4 -4 -4 -4 -4 -5 -5 -5 -5 -5 -5 -5 -5 -5 -5 -4 -3 -1 1 3 7 10
-3 -4 -5 -6 -6 -6 -6 -6 -6 -7 -7 -6 -6 -5 -5 -4 -4 -4 -4 -4 -4 -4 -4 -4 -5 -5 -5 -5 -5 -5 -5 -5 -5 -5 -5 -4 -3 -2 -1 2 5 9 11
-1 -2 -3 -4 -5 -5 -5 -5 -5 -5 -5 -5 -5 -5 -5 -4 -4 -4 -5 -5 -5 -5 -5 -5 -6 -6 -6 -6 -5 -5 -5 -6 -5 -5 -5 -4 -3 -1 0 3 7 10 11
1 1 0 -1 -2 -3 -4 -4 -4 -4 -4 -4 -4 -4 -4 -4 -5 -5 -5 -5 -5 -5 -6 -6 -7 -7 -7 -6 -6 -6 -6 -5 -4 -4 -3 -3 -2 -1 2 5 9 11 11
2 2 2 1 1 -0 -1 -2 -2 -3 -3 -3 -4 -4 -4 -4 -4 -4 -4 -3 -4 -5 -6 -7 -7 -7 -6 -6 -6 -6 -5 -4 -3 -2 -2 -2 -1 0 3 7 10 11 11
4 3 3 3 3 2 2 1 0 -0 -0 -1 -2 -2 -3 -3 -3 -3 -2 -1 -2 -4 -6 -7 -7 -6 -6 -6 -5 -5 -4 -3 -2 -2 -1 -1 -1 1 5 8 10 11 12
7 6 5 4 4 3 3 3 3 2 2 1 1 -0 -1 -2 -2 -1 -1 -1 -2 -3 -5 -5 -6 -5 -5 -4 -3 -3 -3 -2 -2 -1 -1 -0 1 4 6 9 11 12 12
10 9 8 6 5 5 4 4 4 4 4 3 3 2 1 0 -0 -1 -1 -2 -2 -3 -4 -4 -4 -4 -3 -2 -1 -1 -1 -1 -1 -1 -0 1 4 6 8 10 11 12 13
12 11 10 9 7 6 5 5 5 5 5 5 5 4 3 2 1 -0 -1 -2 -2 -2 -2 -3 -3 -3 -2 -1 -0 0 0 -0 -0 -0 1 3 6 8 9 11 12 12 13